Wind_Speed
42 43 43 44 45 46 46 47 47 48 48 48 49 48 48 48 48 48 48 49 49 49 49 50 51 52 53 53 54 55 56 57 58 59 60 62 63 65 65 66 66 66
43 43 44 45 46 47 47 47 48 48 48 48 48 48 48 48 49 49 49 49 49 49 50 51 52 53 54 55 56 57 57 59 60 61 62 64 65 66 66 67 66 65
43 44 45 45 46 47 47 47 48 48 48 49 49 49 49 49 49 49 49 50 50 51 52 53 54 55 56 56 57 58 59 61 62 63 64 65 66 66 66 66 65 63
44 44 45 46 46 47 47 48 48 49 49 49 50 49 49 49 49 50 50 51 52 53 54 55 56 56 57 58 59 60 61 62 63 64 65 65 66 66 65 64 63 61
44 45 45 46 47 47 48 48 48 49 49 49 49 49 49 50 50 51 52 53 54 55 56 56 57 58 59 60 61 62 63 64 64 65 65 65 65 65 63 62 61 60
45 45 46 47 47 47 48 48 48 48 48 48 49 49 50 51 52 53 54 55 56 57 57 58 59 60 61 62 63 63 63 64 64 65 65 64 64 63 62 61 60 60
46 46 46 47 47 47 47 47 47 48 49 50 50 51 52 53 54 55 56 57 58 59 60 61 62 62 63 63 63 63 64 64 65 65 64 63 62 62 61 60 60 60
45 45 45 46 46 46 47 48 49 50 51 51 52 53 54 55 56 57 58 59 60 61 62 63 64 64 64 64 64 65 65 65 65 64 63 62 61 60 60 60 60 60
44 44 45 46 47 48 49 50 51 51 52 53 54 55 56 57 58 59 60 61 62 63 64 65 65 65 65 66 66 66 66 66 65 63 62 61 60 60 60 60 60 60
45 46 47 48 49 50 51 52 52 53 54 55 56 57 58 59 60 61 62 63 64 65 65 66 66 66 67 67 67 67 66 65 63 62 61 60 60 60 61 61 61 61
46 47 48 50 51 52 53 54 54 55 56 57 58 59 60 61 63 64 64 65 66 66 66 67 67 68 68 68 67 66 65 63 62 62 61 61 61 61 62 62 62 62
48 49 50 51 53 54 55 56 56 57 58 59 60 61 63 64 65 66 66 66 66 66 67 67 68 68 68 67 66 65 64 63 62 62 62 62 62 61 62 62 62 63
50 51 52 54 55 56 57 58 59 60 61 62 63 64 65 66 66 67 67 66 67 67 68 68 68 68 67 65 64 63 63 63 63 63 62 61 61 61 61 62 63 64
54 55 56 57 58 59 59 60 62 63 64 65 65 66 67 67 67 67 67 67 68 68 69 68 67 66 65 64 64 64 63 63 63 62 61 61 61 61 63 64 66 67
56 57 58 59 60 61 62 63 64 65 66 67 67 68 68 68 67 67 68 68 69 69 68 67 66 65 64 64 64 63 63 63 63 62 62 63 63 65 67 69 71 72
58 59 60 61 62 63 64 65 66 67 68 68 68 68 68 68 68 69 69 69 68 67 66 65 65 65 65 65 65 65 64 64 64 64 66 67 68 70 71 73 75 77
62 62 63 64 65 66 67 67 67 68 68 68 68 68 68 69 69 69 69 67 66 65 64 64 65 66 66 66 66 67 67 67 68 69 70 72 74 75 77 78 79 81
65 65 66 66 67 67 68 68 68 68 68 68 68 69 69 69 69 67 66 65 64 64 65 65 66 67 68 69 69 70 71 72 73 75 76 77 79 80 81 82 83 85
67 67 67 68 68 68 69 69 69 69 69 70 70 70 69 68 66 65 65 65 65 65 66 67 68 70 71 72 74 75 76 78 79 80 81 82 83 84 86 87 88 89
68 68 69 69 69 69 69 70 70 71 71 70 69 68 66 65 65 65 65 66 67 67 68 70 72 74 75 77 78 80 81 82 83 84 85 86 87 89 90 91 92 93
69 69 70 70 70 70 71 71 71 70 69 68 66 66 65 65 66 66 67 68 69 71 72 73 76 78 79 81 83 84 85 86 88 89 90 91 92 93 94 95 96 97
69 70 70 70 71 71 71 70 69 67 66 66 66 66 66 67 67 69 70 72 74 75 76 77 79 82 83 85 86 88 89 91 92 93 94 95 95 96 97 98 99 100
70 70 70 71 70 69 68 67 66 66 66 66 66 67 68 69 71 72 74 76 77 78 80 80 82 84 87 89 90 92 93 94 95 97 98 98 99 99 100 100 101 101
70 70 69 68 67 66 66 66 66 67 67 68 68 69 71 73 74 76 77 79 80 82 83 85 86 88 90 92 93 95 96 97 98 100 100 101 102 102 103 103 103 103
67 67 66 65 65 66 66 67 68 68 69 70 71 73 75 76 78 79 80 82 84 86 87 89 90 91 93 94 95 95 97 98 100 101 103 104 105 105 106 106 106 105
65 65 65 66 66 67 68 69 69 70 72 74 75 77 78 80 82 83 84 85 88 90 91 93 94 94 94 94 95 96 97 98 101 103 105 106 107 108 108 108 107 106
Wind_Direction
272 272 273 275 276 278 279 281 282 283 284 285 286 286 287 288 288 289 290 291 292 293 294 295 296 297 298 299 300 300 301 301 302 303 304 304 304 304 304 303 303 303
272 273 274 276 278 279 280 282 283 284 284 285 285 286 287 288 288 289 290 291 292 293 294 295 296 297 298 298 299 299 300 301 302 302 303 302 302 302 302 302 302 302
273 274 276 277 278 279 280 281 282 283 283 284 285 286 287 288 288 289 290 291 292 293 294 295 295 296 297 297 298 299 300 300 301 301 301 301 301 301 301 301 301 300
273 274 275 276 277 278 279 280 281 281 282 283 284 285 287 288 288 289 291 292 292 293 294 294 295 296 297 298 298 299 299 299 299 299 300 300 300 300 299 299 299 299
272 274 275 276 277 278 278 279 280 281 282 283 285 286 287 288 289 290 291 291 292 293 294 295 296 296 297 297 297 297 297 298 298 299 299 299 299 298 298 298 298 298
274 275 276 277 277 278 279 280 281 282 283 284 285 287 288 289 290 290 291 292 293 294 294 295 295 296 296 296 296 296 296 297 298 298 298 298 298 297 297 297 297 297
275 276 277 278 278 279 280 281 282 283 284 285 287 288 289 289 290 291 292 293 293 294 294 294 294 294 295 295 295 296 296 297 298 298 298 297 297 296 296 296 296 296
276 276 277 278 279 280 281 282 283 284 285 287 288 288 289 290 291 292 292 292 293 293 293 293 294 294 295 295 296 297 297 298 298 298 297 296 296 295 295 295 295 295
276 276 278 279 280 281 282 283 284 285 286 287 288 289 290 290 291 291 291 292 292 293 293 294 295 295 295 296 297 297 298 298 297 296 296 295 294 294 294 294 294 294
277 278 280 281 282 282 283 284 285 286 287 288 289 289 290 290 290 291 291 292 293 294 294 295 295 295 296 297 297 297 297 297 296 295 295 294 294 294 294 294 294 294
278 280 281 281 282 283 284 285 285 286 287 288 289 289 290 290 291 292 293 294 294 295 295 295 295 296 296 297 297 296 296 296 295 295 295 295 294 294 294 294 294 294
280 281 281 282 283 284 285 286 287 288 288 289 290 290 291 292 293 294 294 295 295 294 295 295 295 296 296 296 296 295 295 295 295 294 294 293 293 293 293 294 294 294
282 282 283 284 285 286 287 288 289 290 290 291 291 292 293 293 294 294 294 294 294 294 295 295 295 295 295 294 294 294 294 294 293 293 292 292 292 292 293 293 293 294
283 284 285 286 287 288 289 290 290 291 291 292 292 293 293 293 294 294 294 294 294 294 295 294 294 294 293 293 293 293 293 293 292 291 291 291 291 292 293 294 294 294
284 285 286 287 288 289 289 290 290 291 291 292 292 292 293 293 293 293 293 294 294 294 294 294 293 293 292 292 292 293 293 293 292 291 291 291 292 293 293 294 295 295
285 286 287 288 288 289 289 290 290 290 291 291 292 292 292 292 292 293 293 293 294 294 294 294 294 294 294 294 294 294 295 294 293 293 292 293 293 293 294 295 295 296
286 287 288 289 289 289 290 290 290 291 291 291 291 292 292 292 293 293 294 294 294 294 295 295 295 296 296 296 296 296 296 296 295 295 295 295 295 295 295 296 296 297
288 289 289 290 290 290 290 290 291 291 291 292 292 293 293 294 294 294 295 295 296 296 297 297 297 297 297 297 297 297 297 297 297 296 296 296 297 297 297 297 297 298
290 290 290 290 290 290 290 291 291 292 292 293 294 294 295 295 295 296 296 297 297 298 298 298 298 298 298 298 298 298 298 298 298 297 298 298 298 298 298 298 297 297
289 289 289 289 290 290 290 291 292 293 293 294 294 295 295 296 296 297 297 297 298 298 298 298 299 299 299 299 298 298 298 298 298 298 298 297 297 297 297 297 297 297
288 288 288 289 289 290 291 292 292 293 293 294 294 295 295 296 296 297 297 297 298 298 298 299 299 299 299 298 298 298 297 297 297 297 297 297 297 297 298 298 298 298
286 287 288 288 289 290 291 292 292 293 293 293 294 295 295 296 296 297 297 298 298 298 299 299 299 299 298 298 297 297 297 297 297 297 297 297 298 298 298 298 299 299
286 287 288 289 289 290 291 292 292 293 293 294 294 295 296 296 297 297 298 298 298 298 298 298 298 298 297 297 297 297 297 297 297 297 298 298 298 298 299 299 299 299
287 287 288 289 290 290 291 292 293 293 293 294 295 295 296 296 297 297 297 297 297 297 297 297 297 297 297 297 297 297 297 297 298 298 298 298 298 299 299 299 299 299
286 287 288 289 290 291 292 292 292 293 293 294 295 295 296 296 296 296 296 296 297 297 297 297 297 297 298 298 298 298 298 298 298 299 299 299 299 299 299 299 299 299
288 289 290 291 291 291 291 291 292 293 294 295 295 295 295 295 295 296 296 296 297 297 297 298 298 298 298 298 298 298 298 298 299 299 299 299 299 299 300 300 300 300
Height
5849 5848 5847 5847 5846 5845 5844 5843 5842 5841 5840 5839 5838 5837 5836 5834 5833 5831 5830 5828 5826 5825 5823 5821 5819 5816 5814 5812 5810 5808 5805 5803 5800 5797 5795 5792 5789 5786 5783 5780 5777 5774
5844 5843 5843 5842 5841 5840 5840 5839 5838 5837 5835 5834 5833 5832 5830 5829 5828 5826 5825 5823 5821 5819 5818 5815 5813 5811 5809 5807 5804 5802 5799 5796 5794 5791 5789 5786 5783 5780 5777 5774 5771 5767
5839 5839 5838 5837 5837 5836 5835 5834 5833 5832 5831 5829 5828 5827 5825 5824 5823 5821 5819 5818 5816 5814 5812 5810 5808 5806 5803 5801 5798 5796 5793 5790 5788 5785 5783 5779 5776 5774 5771 5767 5765 5761
5835 5834 5834 5833 5832 5831 5831 5830 5828 5827 5826 5824 5823 5822 5820 5819 5817 5816 5814 5812 5810 5808 5806 5804 5802 5800 5797 5795 5792 5790 5787 5784 5782 5779 5776 5772 5769 5767 5763 5760 5758 5754
5831 5830 5829 5828 5828 5827 5825 5824 5823 5822 5821 5819 5818 5817 5815 5813 5812 5810 5808 5806 5804 5802 5800 5798 5796 5793 5791 5788 5786 5784 5781 5778 5776 5773 5770 5766 5762 5759 5756 5753 5751 5748
5826 5825 5824 5823 5822 5821 5820 5819 5817 5816 5815 5814 5813 5811 5810 5808 5806 5804 5802 5800 5798 5795 5793 5791 5789 5787 5785 5782 5780 5777 5775 5772 5769 5766 5763 5759 5756 5752 5749 5746 5744 5741
5821 5820 5819 5817 5816 5815 5814 5813 5812 5811 5810 5808 5807 5805 5804 5802 5800 5798 5795 5793 5791 5789 5787 5785 5782 5781 5778 5776 5773 5770 5767 5765 5762 5759 5755 5752 5749 5745 5742 5740 5738 5735
5815 5814 5813 5812 5811 5810 5808 5807 5806 5805 5804 5802 5801 5799 5797 5795 5793 5791 5789 5786 5784 5782 5780 5778 5776 5773 5771 5768 5766 5763 5760 5757 5754 5751 5748 5745 5742 5739 5736 5733 5731 5728
5809 5808 5807 5806 5805 5804 5803 5801 5800 5799 5798 5796 5794 5792 5791 5789 5786 5784 5782 5780 5778 5775 5773 5771 5768 5765 5763 5760 5758 5755 5752 5749 5746 5744 5741 5738 5735 5732 5729 5726 5723 5721
5803 5802 5802 5800 5799 5798 5797 5795 5794 5793 5791 5790 5788 5786 5784 5782 5780 5778 5775 5773 5770 5767 5765 5763 5760 5757 5755 5752 5750 5748 5745 5742 5739 5736 5733 5730 5728 5725 5722 5719 5716 5714
5798 5797 5796 5794 5793 5792 5790 5789 5788 5786 5785 5783 5781 5779 5777 5775 5772 5770 5767 5765 5762 5759 5757 5754 5752 5749 5747 5744 5742 5739 5737 5734 5731 5728 5726 5723 5720 5717 5714 5712 5709 5707
5792 5791 5790 5788 5787 5785 5784 5783 5781 5780 5778 5776 5774 5772 5769 5767 5764 5762 5759 5757 5754 5751 5749 5746 5743 5741 5739 5736 5733 5731 5729 5726 5724 5721 5719 5716 5713 5710 5707 5705 5702 5700
5786 5785 5783 5782 5780 5779 5777 5776 5774 5772 5770 5768 5766 5764 5761 5759 5756 5754 5751 5749 5746 5743 5740 5738 5735 5733 5730 5728 5725 5723 5721 5719 5717 5714 5712 5709 5706 5703 5701 5698 5695 5692
5779 5778 5776 5775 5773 5772 5770 5768 5766 5764 5762 5760 5758 5756 5754 5751 5749 5746 5743 5741 5738 5735 5732 5729 5727 5724 5722 5720 5718 5716 5714 5712 5709 5707 5704 5702 5699 5696 5693 5690 5687 5684
5773 5771 5770 5768 5766 5765 5763 5761 5759 5757 5755 5753 5750 5748 5746 5743 5741 5738 5736 5733 5730 5727 5724 5721 5718 5716 5714 5712 5710 5708 5706 5704 5702 5699 5697 5695 5693 5690 5686 5682 5679 5676
5766 5764 5763 5761 5759 5757 5756 5754 5751 5749 5747 5745 5742 5740 5738 5735 5733 5730 5728 5725 5722 5718 5715 5712 5709 5706 5704 5702 5700 5698 5697 5696 5693 5691 5688 5686 5684 5682 5679 5675 5670 5666
5758 5757 5755 5753 5751 5749 5747 5745 5743 5741 5738 5736 5734 5731 5729 5727 5724 5721 5719 5716 5714 5710 5707 5703 5700 5697 5694 5692 5690 5688 5687 5686 5684 5682 5679 5676 5673 5671 5668 5665 5661 5657
5750 5748 5747 5745 5743 5740 5738 5736 5734 5732 5730 5727 5725 5723 5720 5718 5715 5712 5709 5707 5705 5702 5699 5695 5691 5688 5685 5683 5681 5678 5676 5675 5673 5671 5668 5666 5662 5658 5656 5653 5650 5646
5742 5740 5738 5736 5734 5732 5730 5728 5725 5724 5721 5718 5716 5713 5711 5708 5706 5703 5701 5698 5696 5694 5691 5687 5683 5679 5677 5673 5671 5668 5665 5663 5661 5659 5656 5654 5651 5647 5644 5640 5637 5634
5733 5731 5729 5727 5725 5723 5721 5719 5717 5715 5712 5709 5707 5705 5702 5700 5697 5695 5693 5690 5687 5686 5683 5679 5675 5670 5667 5664 5660 5658 5655 5652 5650 5647 5645 5642 5639 5636 5632 5628 5625 5620
5725 5723 5721 5719 5717 5714 5713 5711 5708 5706 5704 5701 5699 5697 5694 5692 5690 5687 5685 5682 5679 5676 5674 5671 5666 5660 5657 5654 5650 5646 5644 5641 5638 5635 5633 5631 5628 5624 5619 5615 5612 5607
5717 5715 5713 5710 5708 5706 5704 5702 5700 5698 5696 5693 5691 5688 5686 5684 5681 5679 5676 5673 5670 5666 5664 5663 5658 5651 5646 5643 5639 5635 5631 5630 5627 5623 5621 5618 5615 5612 5608 5603 5599 5593
5709 5707 5704 5702 5700 5698 5695 5693 5691 5689 5687 5685 5683 5680 5678 5675 5673 5670 5666 5663 5661 5657 5654 5653 5650 5643 5636 5632 5628 5623 5619 5617 5614 5610 5608 5604 5601 5599 5596 5591 5586 5581
5700 5698 5696 5694 5691 5689 5687 5685 5682 5680 5678 5676 5675 5672 5669 5666 5664 5662 5658 5654 5651 5648 5645 5642 5640 5636 5628 5621 5616 5611 5605 5602 5599 5596 5593 5590 5586 5585 5584 5579 5574 5569
5691 5689 5687 5685 5683 5681 5679 5676 5674 5672 5670 5667 5665 5663 5660 5657 5654 5652 5650 5646 5641 5638 5635 5631 5627 5625 5619 5610 5604 5599 5593 5588 5584 5580 5577 5574 5571 5570 5569 5567 5562 5556
5682 5680 5678 5677 5674 5672 5670 5668 5666 5663 5661 5659 5656 5653 5650 5647 5644 5642 5640 5637 5632 5627 5624 5619 5614 5612 5608 5601 5592 5586 5581 5575 5570 5566 5561 5557 5554 5554 5552 5550 5547 5542